Lid_Strength_Index
16 15 16 16 16 16 16 16 16 17 17 18 17 18 18 18 18 18 19 19 19 20 20 20 20 20 21 21 21 21 21 21 23 21 20 20 20 20 19 18 18 18 17
15 15 16 16 16 17 16 16 16 17 17 17 17 18 18 18 18 18 19 19 20 20 20 20 21 21 22 22 22 22 22 22 23 24 22 21 21 21 20 20 18 17 17
13 15 15 15 16 16 15 15 16 16 17 17 17 18 18 18 18 18 19 19 20 20 20 20 21 21 23 23 23 23 23 22 22 23 23 21 21 20 20 19 18 17 16
13 15 15 15 15 14 14 15 16 16 17 17 17 17 17 18 18 18 19 19 20 19 19 20 21 21 22 23 23 23 23 24 23 23 23 22 21 19 19 18 18 17 17
14 14 13 14 15 14 14 15 16 16 16 17 17 17 18 18 18 18 19 19 20 20 20 20 21 21 20 21 22 23 23 24 23 23 22 21 20 19 19 18 18 18 17
14 14 13 13 14 15 15 15 16 16 17 17 17 17 18 18 15 15 17 19 19 20 21 21 21 20 19 18 18 19 21 25 28 26 21 20 19 19 18 18 18 18 19
13 13 13 14 15 14 15 16 17 17 17 17 17 18 18 18 15 14 15 19 19 20 20 21 21 21 20 19 17 17 18 17 19 20 19 18 19 18 18 18 17 17 18
13 13 14 14 15 16 17 17 18 18 17 18 17 17 17 18 15 14 15 18 19 20 21 21 21 21 21 20 19 18 18 18 17 17 18 18 18 17 17 16 17 19 19
13 13 14 15 15 16 17 17 17 17 18 17 17 17 17 18 15 13 15 19 19 20 20 20 20 21 19 17 20 21 20 19 17 15 15 14 14 14 15 19 24 25 23
14 14 15 16 17 17 18 18 17 16 17 17 18 17 18 18 15 14 15 19 20 21 20 20 19 19 17 16 20 21 23 20 19 20 18 18 18 18 17 18 22 28 24
16 16 14 14 16 17 16 19 18 18 19 19 20 19 19 18 17 13 13 18 19 20 21 21 19 16 16 15 17 20 20 18 19 22 22 22 21 21 20 19 19 20 22
16 16 15 15 15 17 18 18 18 18 19 21 21 22 20 19 17 14 13 17 17 19 20 20 19 16 15 15 15 16 15 20 25 27 28 26 23 22 21 20 19 19 18
18 18 18 17 14 16 17 18 19 19 19 21 21 22 21 20 18 14 12 15 15 19 19 18 17 15 15 15 14 15 18 23 25 29 27 25 23 21 20 20 20 19 19
21 21 20 20 17 15 16 17 18 19 19 19 21 21 21 21 20 17 14 14 16 18 17 18 17 15 15 18 17 17 21 22 23 25 24 23 22 22 22 21 22 21 21
22 22 22 21 20 16 16 16 17 17 17 18 19 19 20 21 20 17 15 16 17 19 18 19 18 20 21 22 23 22 22 23 23 23 24 24 24 23 22 21 21 22 23
24 23 22 21 20 18 17 17 14 14 15 14 15 17 18 17 17 16 14 14 15 15 19 20 21 22 22 23 24 24 23 23 22 23 24 24 24 23 23 22 22 23 23
25 25 24 23 21 20 17 18 19 17 14 14 14 14 15 16 16 15 14 13 14 15 21 22 22 23 23 24 24 24 24 23 24 24 24 24 24 24 24 24 23 22 22
24 23 23 23 22 20 18 17 17 19 20 18 14 14 13 14 14 15 13 12 15 17 22 22 23 23 23 24 24 25 25 25 25 25 25 26 26 26 26 25 23 23 23
24 23 22 21 20 19 18 16 17 18 19 19 17 14 13 13 14 13 12 15 17 22 22 22 23 24 24 25 25 26 26 27 27 28 28 29 28 28 27 25 23 22 22
23 23 22 21 21 20 18 16 17 18 18 19 18 17 15 15 17 16 15 15 20 22 22 24 25 24 25 26 27 28 29 29 29 30 30 30 29 28 26 25 24 23 23
23 23 22 21 20 19 17 17 17 18 18 17 17 15 14 16 17 16 15 19 21 23 24 25 27 26 27 28 28 29 29 28 30 30 30 31 29 28 25 24 24 23 21
22 22 22 21 19 17 16 17 17 17 17 17 16 15 11 15 16 20 20 21 22 24 24 25 26 27 27 28 28 29 29 30 31 31 31 30 28 27 26 25 23 21 20
19 19 18 17 17 16 17 17 17 16 16 15 15 14 15 18 19 20 23 23 24 25 25 25 26 28 28 28 28 27 28 29 30 32 31 30 28 27 26 24 23 21 21
21 20 19 18 18 19 19 19 18 18 18 16 19 20 21 21 23 24 24 25 26 27 27 27 27 28 28 30 31 31 32 32 32 31 31 30 27 27 25 23 21 21 21
22 22 21 20 20 20 20 20 20 21 22 22 22 23 23 23 24 25 25 26 27 28 28 28 28 28 29 30 30 32 31 25 27 28 30 27 27 26 23 22 21 21 22
24 24 23 23 22 22 22 22 23 23 23 23 23 23 24 24 25 26 26 27 27 27 28 28 28 29 29 29 29 28 26 24 25 25 26 25 22 19 23 22 21 22 23